Location: Łódź
(51.7592°N, 19.4560°E)
Time: 13:13:39
(UTC+01:00)

ISS - Visible Passes

Search period start: 24 March 2019 00:00
Search period end: 03 April 2019 01:00
Orbit: 408 x 411 km, 51.6° (Epoch: 24 March)

Date Brightness Start Highest point End Pass type
(mag) Time Alt. Az. Time Alt. Az. Time Alt. Az.
24 Mar -3.3 19:33:17 10° SW 19:36:26 42° SSE 19:37:09 36° ESE visible
24 Mar -0.8 21:09:35 10° W 21:09:56 12° W 21:09:56 12° W visible
25 Mar -2.8 18:42:58 10° SSW 18:45:54 30° SSE 18:48:50 10° E visible
25 Mar -3.3 20:18:56 10° WSW 20:21:38 56° WSW 20:21:38 56° WSW visible
26 Mar -3.8 19:28:19 10° WSW 19:31:36 65° SSE 19:33:13 27° E visible
26 Mar -1.3 21:04:51 10° W 21:05:59 20° W 21:05:59 20° W visible
27 Mar -3.4 18:37:46 10° SW 18:40:58 50° SSE 18:44:12 10° E visible
27 Mar -3.9 20:14:10 10° W 20:17:27 88° W 20:17:27 88° W visible
28 Mar -3.9 19:23:28 10° W 19:26:47 85° S 19:28:51 21° E visible
28 Mar -1.7 21:00:04 10° W 21:01:37 25° W 21:01:37 25° W visible
29 Mar -4.0 20:09:21 10° W 20:12:41 85° S 20:12:58 73° ESE visible
30 Mar -3.8 19:18:38 10° W 19:21:57 90° NNE 19:24:16 18° E visible
30 Mar -2.0 20:55:14 10° W 20:57:01 28° W 20:57:01 28° W visible
31 Mar -3.8 21:04:30 10° W 21:07:47 66° SSW 21:08:18 54° SE visible
01 Apr -3.8 20:13:45 10° W 20:17:04 80° S 20:19:35 16° ESE visible
01 Apr -1.9 21:50:28 10° W 21:52:20 24° WSW 21:52:20 24° WSW visible
02 Apr -3.1 20:59:37 10° W 21:02:47 42° SSW 21:03:36 34° SSE visible
